Regional Weather Roundup
Issued by NWS

Home | Current Version | Previous Version | Graphics & Text | Print | Product List | Glossary On
Versions: 1 2 3 4 5 6 7 8 9 10 11 12 13 14 15 16 17 18 19 20 21 22 23 24 25 26 27 28 29 30 31 32 33 34 35 36 37 38 39 40 41 42 43 44 45 46 47 48 49 50
308
ASUS43 KDMX 231406
RWRIA

WEATHER ROUNDUP FOR IOWA
NATIONAL WEATHER SERVICE DES MOINES IA
900 AM CDT SUN JUL 23 2017

NOTE: "FAIR" INDICATES FEW OR NO CLOUDS BELOW 12,000 FEET WITH NO
SIGNIFICANT WEATHER AND/OR OBSTRUCTIONS TO VISIBILITY.

* - THESE STATIONS ARE NOT NWS STATIONS...THUS NOT UNDER NWS
QUALITY CONTROL.  THEY ALSO DO NOT REPORT WEATHER SUCH
AS PRECIPITATION OR FOG.

IAZ001>003-012>014-020>022-031>034-043>046-231500-
   NORTHWEST IOWA

CITY           SKY/WX    TMP DP  RH WIND       PRES   REMARKS
CARROLL *      SUNNY     75  70  83 NW8       29.94S
CHEROKEE *     SUNNY     72  64  76 N6        29.97R
DENISON *      SUNNY     75  68  78 N7        29.97S
ORANGE CITY *  SUNNY     70  64  83 NW5       29.99R
SHELDON *      SUNNY     70  63  78 N7        29.97S
SIOUX CITY     SUNNY     75  66  73 N6        29.97R
SPENCER        SUNNY     71  62  73 N12       29.97R
STORM LAKE *   SUNNY     73  64  73 N9        29.97R
$$

IAZ055>058-069>071-079>083-090>094-231500-
   SOUTHWEST IOWA

CITY           SKY/WX    TMP DP  RH WIND       PRES   REMARKS
ATLANTIC *     PTSUNNY   73  73 100 NW3       29.96S FOG
AUDUBON *      SUNNY     73  72  94 NW3       29.96S FOG
CLARINDA *     MOSUNNY   75  75 100 CALM      29.97R
COUNCIL BLFS * FOG       72  72 100 N6        29.98R VSB<1/4
CRESTON *      SUNNY     77  73  88 SW6       29.96S
HARLAN  *      SUNNY     75  75 100 CALM      30.00R
LAMONI         SUNNY     82  77  84 NW7       29.93S HX  90
RED OAK *      MOSUNNY   73  73 100 CALM      29.96R FOG
SHENANDOAH *   PTSUNNY   75  73  94 CALM      29.96S FOG
$$

IAZ047>049-059>061-072>074-084-231500-
   CENTRAL IOWA

CITY           SKY/WX    TMP DP  RH WIND       PRES   REMARKS
AMES           SUNNY     76  72  87 NW13      29.91R
ANKENY *       SUNNY     77  72  83 NW8G16    29.92S
BOONE *        SUNNY     75  70  83 NW9G16    29.92R
CHARITON *     SUNNY     81  73  78 W8        29.92R HX  85
DES MOINES     MOSUNNY   79  71  76 NW8       29.91R HX  82
GRINNELL*      SUNNY     76  72  89 W14       29.91S
KNOXVILLE *    SUNNY     79  72  78 NW10      29.89S HX  82
MARSHALLTOWN   SUNNY     78  71  79 W9        29.88F HX  80
NEWTON *       SUNNY     77  72  83 NW9       29.91S
PELLA *        SUNNY     80  72  76 NW8       29.91R HX  84
$$

IAZ004>006-015-016-023>025-035-036-231500-
   NORTH CENTRAL IOWA

CITY           SKY/WX    TMP DP  RH WIND       PRES   REMARKS
ALGONA *       SUNNY     72  64  78 N10       29.94R
CLARION *      SUNNY     70  68  94 NW12      29.92R
ESTHERVILLE    SUNNY     68  62  81 NW9       29.96R
FORT DODGE *   SUNNY     72  64  78 NW5       29.94S
MASON CITY     SUNNY     72  65  78 NW13      29.91R
FOREST CITY *    N/A     72  64  78 NW9G17    29.92R
WEBSTER CITY * SUNNY     73  66  78 NW9       29.91R
IOWA FALLS *     N/A     74  67  80 W13       29.91S
$$

IAZ007>011-017>019-026>030-037>042-050>054-066-231500-
   NORTHEAST IOWA

CITY           SKY/WX    TMP DP  RH WIND       PRES   REMARKS
CEDAR RAPIDS   SUNNY     78  76  93 W8        29.86S HX  81
CHARLES CITY * MOSUNNY   72  70  94 NW7G14    29.87S
DECORAH *      PTSUNNY   72  68  88 CALM      29.85S
DUBUQUE        MOSUNNY   73  72  96 W10       29.86S
MONTICELLO *   SUNNY     77  73  88 W7        29.86S
OELWEIN *        N/A    N/A N/A N/A MISG        N/A
WATERLOO       SUNNY     78  70  76 W10       29.85F HX  80
$$

IAZ064-065-067-068-078-231500-
   EAST CENTRAL IOWA

CITY           SKY/WX    TMP DP  RH WIND       PRES   REMARKS
DAVENPORT        N/A     78  74  87 W7        29.88S HX  81
IOWA CITY      SUNNY     82  74  76 W10       29.87S HX  88
MT. PLEASANT * SUNNY     80  75  84 W8        29.87F HX  85
MUSCATINE *    SUNNY     81  75  83 NW8       29.86S HX  86
QUAD CITIES    SUNNY     81  74  79 W8        29.85S HX  86
$$

IAZ062-063-075>077-085>089-095>099-231500-
   SOUTHEAST IOWA

CITY           SKY/WX    TMP DP  RH WIND       PRES   REMARKS
BURLINGTON     MOSUNNY   82  76  81 NW8       29.86F HX  89
FAIRFIELD *    MOSUNNY   81  75  83 NW9       29.88S HX  86
FORT MADISON * SUNNY     81  75  83 NW12      29.88S HX  86
KEOKUK *       MOSUNNY   81  75  83 NW10      29.87S HX  86
OSKALOOSA *      N/A     79  74  85 W8        29.89F HX  83
CENTERVILLE *    N/A     81  75  83 W3        29.93S HX  86
OTTUMWA        SUNNY     82  74  76 W9        29.89S HX  88
WASHINGTON *   SUNNY     79  77  94 W8G15     29.88S HX  83
$$

ABBREVIATIONS USED IN REMARKS
   TC - TEMPERATURES IN CELSIUS
  WCI - WIND CHILL INDEX
   HX - HEAT INDEX
  VSB - VISIBILITY
$$





USA.gov is the U.S. government's official web portal to all federal, state and local government web resources and services.